Temp
25 24 23 23 22 22 21 20 20 20 18 18 19 18 18 17 16 16 16 16 16 16 16 16 15 15 13 13 12 12 12 12 11 12 12 11 11 11 11 12 12 12 13
24 24 23 22 21 21 20 20 20 19 18 18 18 18 16 15 15 15 15 15 15 15 15 15 14 13 13 11 11 11 11 11 11 11 11 10 11 11 11 11 12 12 12
23 22 21 21 20 20 19 19 18 17 17 17 17 16 15 14 14 14 15 15 15 14 14 13 12 11 11 11 10 10 11 11 10 11 10 10 10 10 11 11 11 11 12
22 21 20 20 20 19 19 18 17 17 16 16 15 14 14 14 14 14 14 13 13 12 13 13 12 12 12 12 10 10 10 11 11 10 10 10 10 10 11 11 11 11 12
21 20 20 20 19 18 18 17 17 16 15 14 14 14 14 14 12 13 12 12 12 12 12 12 12 12 12 12 11 10 10 9 10 10 10 10 10 10 10 11 10 11 11
20 20 19 19 18 18 17 16 16 15 15 15 15 14 13 11 12 12 11 11 12 12 12 12 12 11 10 11 10 10 10 9 10 9 10 10 10 10 10 10 10 10 10
19 19 19 18 18 17 17 16 16 16 15 14 13 13 12 12 11 11 11 11 11 11 12 11 9 9 11 9 11 11 12 11 10 10 9 9 10 10 10 10 10 10 10
19 18 18 18 18 17 16 16 15 14 13 13 12 11 11 11 11 11 11 11 11 11 11 11 10 10 10 10 11 12 12 12 10 10 10 10 10 10 10 10 10 10 10
18 18 18 17 17 16 15 15 14 13 12 12 11 10 10 10 10 10 11 11 11 11 11 11 10 10 10 10 10 11 11 11 10 10 10 10 10 10 10 10 10 9 10
18 17 17 17 16 16 15 14 13 12 11 11 10 10 9 9 10 10 10 10 9 10 11 11 9 9 9 10 10 10 10 10 11 11 12 11 11 11 11 9 9 8 8
18 17 17 17 16 15 14 12 12 11 11 11 9 9 9 9 9 9 9 8 7 7 8 9 9 9 9 8 8 8 9 10 10 11 10 10 11 11 9 9 9 8 7
18 17 16 15 14 13 12 10 10 9 9 9 9 8 7 9 9 8 8 7 7 7 7 8 8 8 8 8 8 8 9 10 10 10 10 10 10 10 9 10 10 8 7
16 16 15 13 11 10 9 9 9 8 8 7 7 7 7 8 8 8 8 8 7 7 6 7 7 7 7 8 8 8 8 9 9 10 10 10 10 10 9 9 10 8 7
14 14 11 10 9 9 8 9 8 8 7 6 6 8 7 7 7 7 7 7 7 6 6 6 6 6 7 8 8 8 9 9 9 9 9 9 9 10 10 9 9 8 7
14 11 9 9 9 9 8 7 6 7 7 7 6 6 6 7 7 5 5 5 5 5 5 6 7 6 7 7 8 8 8 9 9 8 9 9 10 10 10 10 9 9 7
12 9 9 9 8 7 6 6 7 6 6 6 6 6 6 5 4 4 4 4 5 5 6 6 5 6 6 6 7 7 8 8 8 8 8 8 9 9 9 10 9 9 7
10 9 8 7 8 7 7 6 5 5 6 6 5 5 4 4 3 4 4 4 4 4 5 5 4 5 5 6 6 7 7 7 7 7 8 8 8 9 8 9 9 9 8
9 9 8 8 8 7 7 6 5 5 4 4 5 4 4 4 4 4 4 4 4 3 4 4 4 4 5 5 6 6 6 6 7 7 7 7 7 8 8 8 9 9 8
8 7 8 8 7 7 7 6 6 5 5 4 3 3 4 4 4 4 3 4 4 4 4 4 4 4 4 4 5 5 6 6 6 7 7 7 7 7 8 8 8 9 9
8 8 8 8 7 7 6 5 5 5 4 3 3 2 3 2 2 2 3 4 4 3 3 4 3 4 4 5 5 5 6 5 6 6 6 6 6 6 6 7 8 8 8
8 8 8 7 6 6 5 5 4 4 4 3 3 3 4 3 2 3 3 3 4 3 3 4 4 4 4 5 5 5 5 5 5 6 6 6 6 6 5 4 6 7 8
8 8 7 7 6 6 5 5 4 4 4 3 3 4 4 4 4 3 3 3 3 3 4 4 4 4 4 5 5 5 5 5 5 5 6 6 6 4 4 4 5 6 7
8 7 7 7 6 6 5 4 4 4 4 3 3 4 4 4 3 4 4 4 4 4 4 4 4 4 4 4 4 4 4 4 4 5 5 6 3 4 4 5 6 6 7
7 7 6 6 6 5 4 4 4 4 4 4 4 4 4 3 3 3 3 3 3 3 3 3 4 4 4 4 3 3 3 2 3 4 4 4 2 3 4 5 6 6 6
7 6 6 5 5 4 5 4 3 3 4 4 4 4 3 3 3 3 3 3 3 3 3 3 3 3 2 3 3 3 3 2 3 3 4 1 2 3 4 5 5 6 6
6 6 6 5 5 5 4 3 3 3 3 4 4 3 3 3 3 3 3 3 3 3 3 3 3 3 2 2 3 3 3 3 3 3 4 1 2 3 3 4 4 5 5
Height
1547 1551 1553 1555 1556 1556 1556 1556 1556 1556 1555 1555 1554 1552 1550 1547 1546 1544 1542 1540 1539 1536 1534 1531 1528 1525 1523 1521 1517 1515 1512 1509 1499 1495 1495 1493 1489 1484 1482 1478 1475 1471 1467
1543 1546 1548 1550 1551 1552 1552 1552 1552 1551 1551 1550 1548 1545 1543 1542 1541 1538 1536 1534 1531 1530 1526 1524 1521 1518 1515 1513 1512 1509 1505 1501 1495 1484 1485 1483 1481 1478 1473 1469 1466 1464 1461
1540 1542 1544 1546 1548 1548 1548 1548 1547 1547 1546 1545 1543 1541 1539 1538 1536 1533 1531 1528 1527 1524 1521 1517 1514 1512 1509 1507 1504 1501 1497 1493 1488 1482 1476 1476 1472 1469 1463 1460 1458 1455 1453
1536 1538 1540 1542 1544 1545 1544 1544 1544 1544 1543 1542 1540 1538 1536 1534 1531 1527 1525 1523 1521 1518 1515 1511 1509 1506 1503 1499 1496 1492 1488 1484 1481 1476 1471 1466 1463 1461 1456 1452 1449 1448 1446
1534 1537 1539 1540 1541 1541 1542 1542 1542 1541 1539 1538 1536 1534 1531 1528 1526 1523 1521 1519 1516 1512 1509 1506 1503 1499 1496 1493 1488 1485 1482 1479 1475 1470 1464 1461 1457 1451 1447 1445 1442 1440 1438
1534 1536 1537 1539 1540 1540 1540 1540 1538 1537 1536 1534 1532 1529 1527 1525 1521 1519 1517 1513 1510 1506 1502 1500 1496 1492 1489 1485 1482 1479 1476 1472 1468 1464 1459 1454 1450 1447 1444 1438 1437 1435 1432
1534 1535 1537 1538 1538 1538 1538 1537 1537 1535 1533 1530 1528 1526 1523 1520 1517 1515 1512 1507 1504 1500 1497 1492 1489 1487 1483 1480 1476 1473 1470 1466 1463 1458 1453 1449 1445 1442 1439 1435 1432 1429 1426
1532 1534 1535 1536 1537 1537 1536 1534 1532 1530 1528 1526 1524 1523 1521 1516 1513 1509 1505 1500 1498 1496 1493 1489 1485 1482 1479 1474 1468 1466 1464 1461 1456 1452 1449 1445 1442 1438 1435 1432 1428 1423 1419
1531 1534 1535 1535 1534 1533 1533 1531 1529 1527 1526 1523 1520 1518 1516 1512 1507 1504 1501 1497 1494 1493 1490 1486 1481 1476 1472 1468 1464 1461 1458 1455 1451 1449 1445 1441 1437 1433 1430 1426 1421 1415 1407
1532 1533 1532 1531 1531 1530 1530 1529 1528 1526 1523 1522 1519 1516 1512 1509 1506 1503 1498 1494 1490 1488 1485 1480 1476 1472 1469 1464 1458 1455 1453 1450 1447 1442 1439 1436 1432 1428 1425 1421 1414 1405 1395
1531 1531 1531 1531 1530 1529 1528 1527 1525 1524 1523 1520 1517 1515 1511 1508 1504 1500 1496 1491 1487 1484 1481 1477 1473 1469 1465 1460 1455 1450 1449 1446 1443 1439 1435 1431 1427 1424 1420 1414 1405 1393 1379
1529 1530 1529 1529 1528 1527 1526 1525 1524 1522 1521 1518 1516 1514 1510 1505 1501 1497 1494 1491 1487 1482 1479 1475 1471 1467 1463 1458 1453 1450 1448 1445 1440 1436 1432 1428 1423 1418 1413 1406 1394 1379 1366
1526 1525 1526 1527 1527 1526 1527 1525 1524 1521 1519 1517 1515 1512 1507 1503 1498 1494 1491 1487 1484 1481 1477 1473 1469 1464 1460 1455 1452 1449 1446 1442 1437 1433 1429 1425 1420 1414 1408 1397 1384 1368 1355
1524 1524 1527 1527 1527 1526 1525 1524 1522 1519 1517 1517 1513 1510 1506 1501 1497 1492 1489 1484 1481 1479 1476 1471 1466 1461 1457 1454 1451 1448 1445 1440 1435 1431 1427 1423 1417 1410 1403 1394 1378 1360 1348
1522 1524 1526 1526 1526 1525 1524 1523 1522 1519 1517 1515 1511 1508 1504 1501 1497 1493 1489 1484 1481 1478 1475 1471 1464 1460 1455 1450 1448 1446 1442 1437 1434 1430 1425 1420 1414 1407 1399 1391 1377 1361 1349
1522 1524 1526 1526 1525 1525 1524 1523 1522 1519 1516 1514 1510 1507 1504 1500 1497 1493 1489 1485 1482 1478 1475 1469 1464 1459 1454 1450 1448 1444 1441 1437 1433 1428 1423 1418 1412 1405 1396 1388 1378 1364 1351
1522 1523 1525 1526 1525 1525 1524 1524 1523 1519 1515 1513 1510 1507 1503 1500 1497 1494 1490 1485 1482 1478 1474 1469 1465 1460 1456 1453 1448 1444 1440 1436 1432 1427 1422 1416 1411 1405 1397 1387 1379 1368 1351
1524 1525 1525 1525 1526 1527 1525 1523 1521 1519 1517 1514 1510 1508 1504 1500 1497 1494 1490 1487 1482 1478 1475 1471 1467 1462 1458 1454 1450 1445 1441 1436 1432 1426 1421 1416 1410 1404 1397 1389 1381 1372 1360
1523 1526 1525 1524 1525 1526 1524 1522 1520 1518 1515 1514 1512 1509 1503 1500 1498 1494 1490 1486 1483 1479 1476 1472 1467 1463 1459 1455 1450 1446 1441 1437 1432 1427 1422 1417 1411 1405 1398 1392 1384 1377 1368
1522 1523 1522 1523 1523 1523 1523 1522 1519 1516 1515 1514 1513 1509 1504 1501 1499 1495 1490 1487 1484 1481 1478 1473 1470 1466 1461 1456 1451 1447 1443 1438 1434 1428 1423 1418 1412 1405 1399 1394 1388 1380 1374
1520 1519 1519 1519 1521 1523 1522 1519 1517 1516 1515 1514 1512 1509 1505 1502 1499 1496 1493 1490 1486 1483 1479 1475 1472 1467 1462 1458 1454 1449 1445 1441 1436 1431 1425 1419 1413 1407 1402 1398 1392 1387 1380
1516 1517 1519 1517 1518 1520 1521 1518 1514 1513 1512 1514 1512 1510 1506 1504 1501 1498 1495 1491 1488 1485 1481 1477 1474 1469 1465 1460 1456 1452 1448 1443 1437 1432 1427 1421 1415 1411 1406 1402 1397 1392 1386
1512 1515 1515 1513 1515 1517 1518 1516 1513 1512 1511 1512 1511 1512 1507 1505 1503 1499 1496 1493 1490 1487 1483 1480 1476 1471 1467 1463 1458 1453 1448 1444 1439 1434 1429 1423 1419 1415 1411 1406 1401 1396 1391
1511 1513 1513 1511 1514 1516 1515 1513 1512 1510 1509 1511 1512 1509 1512 1508 1503 1500 1497 1495 1492 1489 1485 1481 1477 1473 1469 1464 1459 1454 1449 1445 1441 1436 1431 1426 1423 1420 1415 1410 1405 1400 1396
1511 1510 1510 1510 1512 1514 1511 1511 1510 1509 1507 1508 1509 1509 1508 1508 1505 1501 1499 1496 1493 1490 1487 1483 1479 1474 1470 1465 1461 1456 1452 1447 1442 1438 1433 1431 1428 1424 1419 1415 1409 1404 1400
1510 1508 1506 1508 1510 1511 1510 1510 1508 1508 1507 1509 1506 1510 1508 1507 1506 1502 1499 1496 1493 1490 1487 1484 1480 1476 1471 1466 1461 1457 1452 1448 1444 1440 1435 1434 1431 1427 1422 1418 1413 1408 1404
Wind_Speed
27 26 25 24 23 23 25 27 27 27 25 26 28 30 32 31 27 26 24 22 22 24 25 27 28 29 25 24 22 23 26 28 36 35 29 27 29 31 28 26 24 26 27
28 28 26 24 24 22 23 25 26 27 26 28 32 35 33 24 18 19 21 24 26 27 29 29 29 25 25 22 21 24 27 29 31 39 33 32 31 31 30 29 27 24 25
22 21 21 21 20 20 20 23 25 25 28 30 30 21 16 17 20 23 26 28 28 27 26 25 24 23 23 23 25 26 27 28 29 35 36 36 33 27 30 31 29 27 25
15 14 14 16 16 18 20 19 20 20 16 14 15 16 18 21 23 25 26 25 23 22 23 25 26 27 28 31 28 26 28 29 30 31 33 33 32 29 33 33 31 22 21
11 11 11 14 15 14 13 12 11 12 15 17 19 21 22 22 16 22 23 22 23 24 26 28 30 32 33 30 29 27 26 27 29 30 29 32 35 31 31 27 27 24 22
12 12 11 8 5 5 7 11 14 17 19 21 21 21 20 15 20 21 21 23 26 28 30 30 32 29 25 26 25 25 24 23 26 28 33 33 32 27 23 24 27 28 24
11 9 7 4 5 9 12 15 18 19 18 18 18 18 18 19 21 23 25 27 29 28 29 29 28 25 25 25 25 23 26 25 27 29 28 27 27 24 22 22 24 27 29
11 8 4 5 9 13 16 17 18 18 18 18 18 18 18 21 24 27 29 31 30 28 28 31 32 31 25 28 28 29 24 27 27 20 18 23 21 20 21 25 27 33 33
8 6 6 9 13 15 17 18 18 18 18 19 20 21 21 24 27 30 32 33 30 27 27 30 30 26 26 27 30 29 28 22 19 19 20 21 20 23 22 26 35 30 36
6 6 9 13 16 17 17 17 17 18 18 19 20 22 22 23 25 28 29 28 27 26 26 28 22 23 28 30 31 22 17 16 20 19 21 24 21 17 15 25 30 39 47
5 9 13 15 16 15 15 15 15 16 18 20 19 19 21 22 26 26 26 23 24 25 25 25 22 24 26 27 14 6 13 18 23 24 24 23 24 19 19 35 42 44 40
9 12 13 13 11 11 10 11 13 15 15 17 19 19 19 23 22 21 22 21 20 23 24 23 20 28 22 19 14 18 16 20 19 19 21 23 27 26 25 43 43 41 39
9 9 8 6 6 6 7 9 12 15 16 15 16 17 19 21 22 23 22 23 21 23 24 24 24 21 18 14 11 13 17 14 17 19 24 26 30 26 27 43 48 50 42
3 3 2 3 5 7 8 10 10 11 12 12 15 18 20 21 24 26 26 25 26 26 25 25 23 19 14 11 13 13 16 16 18 21 24 26 28 29 25 39 50 54 43
0 1 2 2 4 6 7 9 11 12 14 16 18 20 22 22 23 24 24 24 24 24 23 22 19 19 17 15 12 13 16 19 21 22 25 28 29 34 30 35 46 56 43
5 6 3 3 4 6 6 8 10 13 15 17 18 19 19 20 20 20 19 17 21 21 21 23 23 26 26 25 23 23 23 23 24 24 25 27 30 32 35 31 41 48 47
8 7 5 4 6 7 8 7 8 12 15 17 19 18 18 18 18 19 18 16 16 17 20 21 24 21 24 23 24 24 24 24 25 25 26 26 27 29 34 31 36 44 49
6 5 4 4 4 5 7 8 9 11 11 14 18 17 17 17 16 16 16 16 15 19 23 24 23 21 20 23 23 23 24 24 25 26 26 26 26 28 31 35 33 37 44
6 6 3 0 1 3 5 8 10 11 13 14 12 14 16 15 15 16 15 15 18 20 22 23 23 24 23 23 24 25 25 25 26 25 26 26 27 28 30 33 34 31 39
9 7 3 3 4 3 5 5 6 9 11 11 13 15 18 15 13 15 17 17 18 20 21 23 23 22 22 24 26 26 26 27 27 27 27 27 27 27 27 31 33 31 30
10 6 3 4 5 5 5 5 5 8 8 9 11 15 17 13 12 13 15 17 19 20 21 22 24 26 26 26 26 26 27 27 27 27 27 28 28 28 27 25 27 29 31
9 6 4 4 5 6 6 5 4 4 6 7 9 11 12 11 12 13 15 17 19 20 22 23 24 25 26 26 26 25 26 26 27 27 27 27 28 27 26 24 25 25 27
10 6 4 3 4 6 7 4 2 2 3 6 8 7 8 10 11 13 15 17 19 20 21 22 24 25 25 25 24 25 25 26 26 26 26 26 25 26 24 24 24 25 25
8 5 3 3 4 4 3 2 1 1 1 4 5 6 7 9 11 13 15 17 18 19 22 24 24 25 25 26 26 24 24 25 24 24 23 24 22 23 22 23 24 24 23
7 5 3 4 3 4 3 3 2 2 2 1 3 5 7 8 10 12 13 15 17 19 20 22 24 25 25 25 24 21 20 20 21 22 22 20 20 22 22 22 23 22 23
6 5 5 5 5 4 3 4 3 3 2 3 4 3 5 7 9 11 13 15 17 19 21 23 24 25 26 26 25 22 19 17 17 18 19 18 19 21 21 22 23 22 21
Wind_Direction
247 250 255 258 261 272 269 269 274 277 273 279 294 296 301 295 293 295 302 308 309 306 307 307 306 307 305 303 301 299 297 296 292 298 298 296 296 300 297 296 292 288 289
249 254 259 264 260 275 270 268 275 275 277 285 294 294 299 300 305 310 312 314 313 311 312 309 310 311 310 310 307 302 299 297 295 297 301 300 298 300 297 298 293 287 282
259 262 262 262 262 267 268 273 279 284 286 290 295 303 310 312 312 315 316 314 312 313 314 316 316 314 311 309 308 305 302 300 298 298 300 303 303 298 301 298 291 289 287
248 252 254 252 254 265 272 282 291 291 293 304 315 321 319 318 317 315 315 315 315 316 320 320 317 315 315 315 311 307 306 304 304 301 303 307 308 301 301 298 296 289 285
215 218 227 245 257 271 281 280 283 306 323 326 325 323 322 322 316 316 317 318 319 321 322 320 316 313 315 317 315 311 306 305 308 310 308 312 313 315 294 295 294 303 299
209 222 226 245 253 267 285 308 320 322 322 320 320 321 325 326 317 316 319 321 322 323 322 320 321 324 320 316 317 313 308 306 308 310 317 312 309 313 318 313 309 304 299
193 200 203 220 277 305 312 315 314 314 319 325 328 327 327 319 319 318 319 320 324 325 326 329 331 329 331 319 314 313 319 318 312 311 313 308 306 311 315 317 311 306 302
183 188 219 274 292 299 306 316 324 329 330 332 332 330 326 320 321 322 326 326 328 329 327 324 327 328 325 322 315 311 316 318 321 318 324 319 315 312 311 315 314 309 300
182 213 259 290 303 317 322 323 325 328 330 332 331 329 328 326 327 326 325 323 324 326 323 320 322 323 319 323 318 309 310 320 329 322 318 320 320 313 306 307 316 306 297
212 271 303 316 317 317 316 319 324 328 330 331 328 325 325 325 324 326 325 327 329 327 326 332 337 328 324 327 313 303 308 325 324 324 317 320 325 323 331 327 317 307 300
294 312 307 307 306 309 315 321 327 330 331 331 328 327 325 325 327 327 330 337 337 337 340 340 339 337 339 328 317 323 314 319 314 320 327 334 329 318 321 332 328 328 309
285 293 302 305 311 320 322 322 325 327 332 337 334 333 334 333 333 338 344 343 337 343 346 340 331 326 332 340 354 351 330 319 322 337 346 346 343 340 332 344 342 339 333
278 297 305 320 339 339 323 318 317 319 327 336 342 343 344 346 345 342 345 343 344 347 347 337 334 328 323 326 337 327 334 345 354 347 350 349 345 335 343 353 351 347 344
295 321 332 360 348 343 337 339 345 355 2 352 348 349 349 350 346 344 345 342 346 344 344 342 339 342 337 349 347 335 341 354 352 350 349 347 349 345 340 350 354 356 340
357 153 116 24 355 350 353 7 12 6 1 357 355 354 349 344 345 349 348 341 343 346 348 339 352 359 4 13 1 354 351 354 351 348 345 345 349 352 350 358 4 4 344
141 137 128 92 45 41 43 23 21 17 11 4 359 355 351 348 352 354 352 337 339 347 349 357 1 7 4 6 4 2 359 356 351 349 347 351 350 355 357 360 7 10 355
142 138 134 85 56 45 45 42 43 19 13 6 4 3 359 358 357 354 352 349 345 347 3 358 1 4 1 359 5 3 0 360 357 356 355 356 352 360 5 3 4 10 8
151 155 142 90 54 38 36 28 23 17 16 8 4 6 3 360 359 353 359 353 4 3 4 2 3 4 1 5 7 6 6 4 1 2 3 1 359 3 8 8 8 13 16
183 195 189 166 7 356 7 5 7 8 8 1 358 359 2 2 5 4 9 7 2 3 3 4 7 9 9 10 11 12 10 10 9 7 7 7 5 7 11 12 12 22 26
189 193 191 250 261 307 324 339 346 357 3 358 354 351 355 1 356 2 9 9 10 14 16 17 13 13 13 14 16 14 13 12 13 13 11 12 10 7 4 11 14 18 23
189 182 198 230 230 260 280 294 316 344 356 353 352 349 356 3 7 12 17 20 24 23 21 20 18 20 18 16 15 16 14 14 14 15 15 13 12 9 3 1 5 11 22
182 187 232 205 221 260 271 277 296 322 344 352 349 356 15 29 35 35 34 31 28 26 23 22 18 18 15 14 12 12 13 12 11 13 17 16 14 4 2 360 1 3 11
174 201 241 210 216 252 275 261 258 299 340 349 355 11 35 44 45 44 39 34 31 27 23 20 18 15 12 10 9 7 8 10 10 11 13 16 10 3 1 2 3 4 5
188 198 192 177 218 236 214 212 213 174 44 355 15 46 41 45 46 40 37 33 28 25 23 21 18 14 10 8 7 7 7 3 6 14 13 20 2 1 1 4 5 5 7
201 209 200 187 220 210 188 161 152 150 109 101 74 55 49 40 38 37 33 30 28 26 22 21 18 16 15 13 10 6 4 5 7 13 14 12 6 5 10 9 8 8 10
221 228 208 211 216 211 193 191 183 175 144 126 90 61 48 37 29 29 29 28 26 23 21 19 17 16 16 12 10 10 11 9 14 14 22 13 13 13 18 15 15 17 17